SCP
0 0 0 0 0 0 0 0 0 0 0 0 0 0 0 0 0 0 -0 0 0 0 0 0 0 0 0 0 0 0 0 0 0 0 0 0 0 0 0 0 0 0 0 0
0 0 0 0 0 0 0 0 0 0 -0 0 0 -0 0 0 0 0 0 0 0 -0 0 0 0 0 0 0 0 0 0 0 0 0 0 0 0 0 0 0 0 0 0 0
0 0 0 0 0 0 0 0 0 0 -0 0 0 0 0 0 0 0 0 -0 0 -0 -0 -0 0 0 0 0 0 0 0 0 0 0 0 0 0 0 0 0 0 0 0 0
0 0 0 0 0 0 0 0 0 0 0 0 0 0 -0 0 0 0 0 0 -0 0 -0 -0 -0 0 0 0 0 0 0 0 0 0 0 0 0 -0 0 0 0 0 -0 -0
0 0 0 0 0 0 0 0 0 0 0 0 0 0 0 0 0 0 0 0 0 0 0 0 0 -0 -0 0 0 0 0 0 0 0 0 0 -0 -0 -0 -0 -0 -0 0 0
0 0 0 0 0 0 0 0 0 0 0 0 0 0 0 0 0 0 0 0 0 0 0 0 0 0 0 0 0 0 0 0 0 0 0 0 0 -0 -0 -0 -0 -0 -0 -0
0 0 0 0 0 0 0 0 0 0 0 0 0 0 0 0 0 0 0 0 0 0 0 0 0 0 0 0 0 -0 0 0 0 0 -0 -0 0 0 -0 -0 -0 -0 -0 -0
0 0 0 0 0 0 0 0 0 0 0 0 0 0 0 0 0 0 0 0 0 0 0 0 0 0 0 0 -0 0 0 0 0 0 0 0 0 0 -0 0 0 -0 -0 -0
0 0 0 0 0 0 0 0 0 0 0 0 0 0 0 0 0 0 0 0 0 0 0 0 0 0 0 0 0 0 0 0 0 0 0 0 0 0 0 0 0 0 0 0
0 0 0 0 0 0 0 0 0 0 0 0 0 0 0 0 0 0 0 0 0 0 0 0 0 0 0 0 0 0 0 0 0 0 0 0 0 0 0 0 0 0 0 0
0 0 0 0 0 0 0 0 0 0 0 0 0 0 0 0 0 0 0 0 0 0 0 0 0 0 0 0 0 0 0 0 0 0 0 0 0 0 0 0 0 0 0 0
0 0 0 0 0 0 0 0 0 0 0 0 0 0 0 0 0 0 0 0 0 0 0 0 0 0 0 0 0 0 0 0 0 0 0 0 0 0 0 0 0 0 0 0
0 0 0 0 0 0 0 0 0 0 0 0 0 0 0 0 0 0 0 0 0 0 0 0 0 0 0 0 0 0 0 0 0 0 0 0 0 0 0 0 0 0 0 0
0 0 0 0 0 0 0 0 0 0 0 0 0 0 0 0 0 0 0 0 0 0 0 0 0 0 0 0 0 0 0 0 0 0 0 0 0 0 0 0 0 0 0 0
0 0 0 0 0 0 0 0 0 0 0 0 0 0 0 0 0 0 0 0 0 0 0 0 0 0 0 0 0 0 0 0 0 0 0 0 0 0 0 0 0 0 0 0
0 0 0 0 0 0 0 0 0 0 0 0 0 0 0 0 0 0 0 0 0 0 0 0 0 0 0 0 0 0 0 0 0 0 0 0 0 0 0 0 0 0 0 0
0 0 0 0 0 0 0 0 0 0 0 0 0 0 0 0 0 0 0 0 0 0 0 0 0 0 0 0 0 0 0 0 0 0 0 0 0 0 0 0 0 0 0 0
0 0 0 0 0 0 0 0 0 0 0 0 0 0 0 0 0 0 0 0 0 0 0 0 0 0 0 0 0 0 0 0 0 0 0 0 0 0 0 0 0 0 0 0
0 0 0 0 0 0 0 0 0 0 0 0 0 0 0 0 0 0 0 0 0 0 0 0 0 0 0 0 0 0 0 0 0 0 0 0 0 0 0 0 0 0 0 0
0 0 0 0 0 0 0 0 0 0 0 0 0 0 0 0 0 0 0 0 0 0 0 0 0 0 0 0 0 0 0 0 0 0 0 0 0 0 0 0 0 0 0 0
0 0 0 0 0 0 0 0 0 0 0 0 0 0 0 0 0 0 0 0 0 0 0 0 0 0 0 0 0 0 0 0 0 0 0 0 0 0 0 0 0 0 0 0
0 0 0 0 0 0 0 0 0 0 0 0 0 0 0 0 0 0 0 0 0 0 0 0 0 0 0 0 0 0 0 0 0 0 0 0 0 0 0 0 0 0 0 0
0 0 0 0 0 0 0 0 0 0 0 0 0 0 0 0 0 0 0 0 0 0 0 0 0 0 0 0 0 0 0 0 0 0 0 0 0 0 0 0 0 0 0 0
0 0 0 0 0 0 0 0 0 0 0 0 0 0 0 0 0 0 0 0 0 0 0 0 0 0 0 0 0 0 0 0 0 0 0 0 0 0 0 0 0 0 0 0
0 0 0 0 0 0 0 0 0 0 0 0 0 0 0 0 0 0 0 0 0 0 0 0 0 0 0 0 0 0 0 0 0 0 0 0 0 0 0 0 0 0 0 0
0 0 0 0 0 0 0 0 0 0 0 0 0 0 0 0 0 0 0 0 0 0 0 0 0 0 0 0 0 0 0 0 0 0 0 0 0 0 0 0 0 0 0 0
0 0 0 0 0 0 0 0 0 0 0 0 0 0 0 0 0 0 0 0 0 0 0 0 0 0 0 0 0 0 0 0 0 0 0 0 0 0 0 0 0 0 0 0
Wind_Speed_500mb
6 3 6 10 10 15 17 13 13 23 20 35 14 15 39 51 44 37 40 44 34 20 8 2 2 5 4 1 3 6 11 16 19 21 21 21 18 18 17 22 26 27 26 25
6 5 3 10 15 19 24 5 22 22 44 44 66 48 40 31 29 30 28 36 40 29 16 9 8 8 12 10 4 4 9 14 18 21 23 26 26 23 22 22 27 30 29 25
7 3 5 15 18 31 10 12 17 15 39 12 11 15 24 26 26 18 21 33 40 32 20 15 12 14 16 15 8 4 6 9 13 19 22 24 26 27 25 24 23 24 23 22
5 2 6 15 8 11 25 15 32 22 25 27 28 38 49 48 41 28 21 33 35 32 28 24 18 18 19 19 13 9 8 8 10 10 17 22 20 22 23 26 25 23 21 20
6 7 11 22 6 13 15 17 33 43 36 38 34 28 30 13 39 36 22 27 27 26 26 25 23 20 20 19 16 13 10 11 11 9 9 13 18 18 17 19 21 20 21 19
6 7 14 16 7 12 5 13 6 31 23 17 3 5 8 17 9 34 27 29 32 32 30 28 27 25 22 20 17 14 13 13 13 12 11 12 9 9 14 16 13 14 13 9
15 9 12 15 18 20 8 11 8 11 12 13 10 16 13 18 12 19 33 28 32 31 27 25 26 26 25 22 18 16 14 12 12 12 12 12 11 11 10 12 14 14 12 9
5 9 19 31 14 18 13 11 13 10 5 4 15 20 19 15 15 5 36 34 32 29 32 32 28 26 25 21 21 17 16 14 12 12 12 12 12 14 13 13 13 13 14 17
24 17 10 56 27 54 20 16 16 12 11 12 10 11 10 19 11 3 27 31 28 28 32 33 29 25 21 23 21 19 17 16 14 14 13 13 13 15 15 19 20 19 18 18
7 14 28 43 63 40 30 36 22 13 12 11 14 13 10 8 11 10 15 24 26 29 31 32 30 28 25 27 22 20 19 18 17 15 14 13 12 13 14 17 18 22 25 25
8 16 24 38 51 56 54 55 51 42 29 33 27 18 15 10 10 13 19 20 21 23 25 24 26 26 30 30 26 23 22 22 20 18 17 16 15 15 15 17 19 21 23 28
12 36 23 38 41 37 42 44 50 46 33 30 24 15 15 14 17 18 22 26 27 25 26 26 28 28 31 33 31 30 31 30 26 23 22 21 21 21 21 22 23 23 26 26
17 33 39 25 15 14 16 22 25 24 22 19 17 17 15 13 17 23 24 31 32 30 28 26 30 30 32 34 34 35 34 31 31 32 31 30 29 28 27 27 31 32 31 32
50 38 22 37 20 20 19 20 19 20 19 17 15 15 15 13 14 16 16 20 27 34 39 37 36 34 32 33 32 33 35 35 36 35 34 34 34 33 32 34 36 35 35 41
52 46 29 18 25 25 22 20 21 20 18 18 20 22 22 24 22 23 26 27 26 27 32 41 43 37 40 35 30 34 38 36 34 32 32 33 34 35 36 37 37 39 38 44
36 37 39 37 34 32 30 26 23 20 20 21 23 25 24 25 26 26 28 30 27 29 31 30 34 40 44 41 35 33 33 33 31 29 26 27 29 33 38 40 43 46 48 44
36 33 38 38 36 31 27 25 25 25 25 25 23 21 21 21 22 24 26 27 29 30 35 38 40 39 38 36 34 34 34 33 33 30 22 25 27 35 45 53 57 55 54 48
33 24 28 29 32 31 29 28 26 22 22 22 21 20 21 21 19 18 21 22 21 21 28 34 36 39 38 31 32 34 32 33 32 32 34 37 45 51 52 46 44 51 47 49
25 23 22 21 21 22 22 22 21 21 20 17 17 17 16 16 16 16 15 18 23 23 20 24 29 34 35 35 38 38 37 37 38 38 36 43 47 47 46 45 45 44 43 42
25 21 19 20 20 20 20 22 22 20 18 18 17 17 16 15 13 13 14 14 15 20 23 24 24 26 28 28 30 33 33 34 38 42 42 39 38 38 39 40 41 40 41 39
25 24 22 20 20 20 19 18 19 17 17 18 20 20 19 17 17 17 16 14 12 13 14 15 17 18 22 26 29 28 25 26 26 26 28 29 32 32 32 32 31 28 24 25
25 22 20 19 17 15 13 11 9 8 8 10 11 13 14 14 13 9 8 8 7 8 9 12 13 14 17 18 18 18 19 21 22 22 22 21 20 19 17 17 18 17 18 18
23 23 23 21 18 17 18 15 13 13 11 12 12 12 10 9 10 8 5 8 7 8 7 3 2 1 4 7 8 9 8 8 8 8 9 8 8 8 9 10 10 11 12 13
28 29 28 29 26 23 23 26 23 21 19 21 21 21 20 19 19 20 18 18 17 17 14 13 12 10 8 6 6 6 6 6 7 6 7 8 7 7 6 5 5 6 7 9
33 34 32 28 27 27 26 27 28 28 25 26 28 26 23 23 20 26 22 22 23 22 21 22 20 17 15 16 16 16 16 16 15 13 12 11 10 10 9 8 9 9 10 12
34 35 34 30 29 28 26 24 23 27 26 24 27 28 26 26 26 25 24 25 24 24 24 24 23 22 22 23 23 22 23 23 20 20 19 18 18 17 17 17 17 17 18 19
35 33 34 34 32 30 29 27 24 26 25 23 22 27 25 24 23 23 25 25 24 24 24 24 23 22 23 25 26 26 26 25 24 23 23 23 22 22 22 22 22 21 22 22
Wind_Direction_500mb
257 205 188 213 180 185 193 203 187 268 237 265 258 241 274 291 284 269 257 238 232 240 236 216 51 80 111 149 81 51 36 38 67 62 59 60 71 88 129 143 146 149 141 142
310 13 92 267 225 208 218 211 265 280 283 270 275 275 274 294 287 269 259 216 210 210 208 190 149 142 140 154 129 49 44 42 62 75 71 75 81 82 92 123 140 144 147 142
243 352 11 300 223 200 192 201 190 205 245 278 258 240 271 298 295 278 227 205 198 185 182 180 162 151 149 148 141 102 61 62 63 89 82 83 88 94 96 101 109 128 141 153
156 77 212 239 168 179 209 225 215 257 265 251 263 280 283 276 270 270 213 193 188 183 181 178 171 162 158 151 145 137 117 104 84 75 104 99 90 95 105 113 120 127 135 150
165 202 314 312 195 161 180 273 211 225 249 269 291 302 303 299 245 239 237 200 192 186 184 183 178 169 163 160 156 144 136 131 128 114 108 112 121 118 119 126 140 151 151 155
158 208 216 228 185 177 188 286 210 196 235 249 151 335 271 346 313 211 214 203 194 190 189 189 185 180 174 167 163 154 144 136 134 139 141 134 137 144 153 153 154 155 160 156
194 227 277 251 158 143 100 241 156 198 249 208 198 223 302 345 350 205 200 205 196 199 200 195 192 189 184 181 171 166 159 150 144 143 157 161 163 163 171 188 197 215 217 214
120 221 258 177 115 178 200 179 162 150 103 309 294 274 283 298 318 232 191 197 199 203 199 198 197 199 197 187 187 182 180 175 164 165 166 170 186 197 199 206 207 210 208 215
187 202 235 188 215 203 187 187 180 203 273 318 340 353 283 266 300 262 195 198 206 208 205 202 199 200 202 195 204 198 198 196 188 179 184 186 189 200 213 220 225 223 225 228
110 220 238 233 222 226 227 233 242 233 297 237 297 317 314 296 230 218 200 209 212 209 206 205 204 200 189 207 217 218 214 217 217 210 204 203 206 211 216 224 232 238 239 241
264 277 260 254 244 245 246 246 257 264 261 258 269 278 270 250 218 217 215 215 218 218 217 213 213 210 209 215 213 216 221 226 228 225 226 230 231 232 232 236 240 240 241 245
211 210 211 245 260 261 254 250 247 254 255 251 249 240 238 227 224 215 216 223 222 222 221 215 219 217 220 225 229 228 228 230 234 237 238 240 241 244 247 247 253 253 254 256
207 229 221 241 232 218 216 216 216 219 213 211 210 210 216 218 225 224 217 220 221 222 220 224 228 228 230 235 237 240 243 242 242 243 243 244 246 249 253 255 256 260 263 265
226 230 211 214 220 217 205 185 177 177 183 195 210 217 228 221 233 242 243 242 238 231 231 230 227 230 229 234 242 248 249 245 246 248 252 254 255 256 255 253 260 261 261 264
235 227 223 212 203 195 190 194 207 210 216 228 242 247 246 253 254 257 257 250 247 250 243 240 232 230 226 225 245 257 250 248 244 246 252 255 256 258 261 264 267 270 265 267
225 219 222 221 220 224 226 229 230 231 235 239 238 243 249 254 254 253 258 264 261 244 231 244 243 234 232 234 251 245 236 237 240 240 247 258 267 274 275 276 277 279 280 280
191 186 196 203 205 209 212 223 233 234 236 233 233 234 237 244 258 259 257 259 263 251 234 222 217 223 228 247 243 225 221 222 226 231 235 260 276 286 288 289 288 287 290 289
216 214 210 218 215 217 219 224 228 229 231 236 238 236 237 230 235 248 252 252 257 254 235 228 223 214 207 213 240 234 231 228 226 239 253 263 272 273 269 268 276 281 283 281
201 198 189 189 195 201 206 212 216 218 218 225 234 233 234 234 224 220 230 233 234 231 228 227 228 220 218 215 219 236 238 237 246 254 266 272 274 273 274 272 272 277 280 280
190 191 192 192 197 208 215 218 222 225 232 234 239 241 239 239 232 227 221 226 228 233 233 235 236 235 236 236 232 234 239 254 266 273 273 269 270 273 278 282 283 285 287 284
194 199 205 210 210 214 221 232 239 240 243 250 245 240 236 231 233 224 223 231 244 242 244 249 255 257 258 257 257 257 258 260 261 267 272 277 282 286 287 289 290 291 293 293
188 190 194 197 196 197 198 209 217 226 228 224 221 218 215 207 202 202 198 209 222 228 249 258 263 265 263 266 265 268 269 270 273 277 278 280 282 283 286 290 289 289 293 291
161 163 162 158 157 156 150 144 142 136 141 131 132 131 129 127 129 123 101 76 71 68 56 47 94 230 264 257 248 249 256 270 288 297 306 314 314 311 313 311 312 315 313 308
150 148 149 147 143 137 142 135 133 129 125 122 122 116 107 103 104 103 99 88 82 78 74 73 68 69 76 86 85 84 84 80 75 56 42 22 13 16 7 353 345 358 346 332
147 143 142 141 138 137 136 130 127 121 119 117 111 106 103 100 99 94 90 85 80 80 82 82 79 77 78 80 80 81 79 75 70 65 64 63 59 54 48 34 26 14 7 357
145 142 138 141 141 133 128 125 125 115 112 112 109 105 102 100 96 96 95 92 90 88 88 88 88 86 86 85 84 84 83 84 83 81 79 78 74 70 64 56 49 40 35 31
145 144 143 141 137 132 129 132 131 123 118 113 113 108 104 102 103 104 103 101 100 98 97 96 97 96 95 97 97 96 94 92 87 83 81 77 73 68 61 54 48 42 37 34
Wind_Speed_850mb
6 3 6 10 10 15 17 13 13 23 20 35 14 15 39 51 44 37 40 44 34 20 8 2 2 5 4 1 3 6 11 16 19 21 21 21 18 18 17 22 26 27 26 25
6 5 3 10 15 19 24 5 22 22 44 44 66 48 40 31 29 30 28 36 40 29 16 9 8 8 12 10 4 4 9 14 18 21 23 26 26 23 22 22 27 30 29 25
7 3 5 15 18 31 10 12 17 15 39 12 11 15 24 26 26 18 21 33 40 32 20 15 12 14 16 15 8 4 6 9 13 19 22 24 26 27 25 24 23 24 23 22
5 2 6 15 8 11 25 15 32 22 25 27 28 38 49 48 41 28 21 33 35 32 28 24 18 18 19 19 13 9 8 8 10 10 17 22 20 22 23 26 25 23 21 20
6 7 11 22 6 13 15 17 33 43 36 38 34 28 30 13 39 36 22 27 27 26 26 25 23 20 20 19 16 13 10 11 11 9 9 13 18 18 17 19 21 20 21 19
6 7 14 16 7 12 5 13 6 31 23 17 3 5 8 17 9 34 27 29 32 32 30 28 27 25 22 20 17 14 13 13 13 12 11 12 9 9 14 16 13 14 13 9
15 9 12 15 18 20 8 11 8 11 12 13 10 16 13 18 12 19 33 28 32 31 27 25 26 26 25 22 18 16 14 12 12 12 12 12 11 11 10 12 14 14 12 9
5 9 19 31 14 18 13 11 13 10 5 4 15 20 19 15 15 5 36 34 32 29 32 32 28 26 25 21 21 17 16 14 12 12 12 12 12 14 13 13 13 13 14 17
24 17 10 56 27 54 20 16 16 12 11 12 10 11 10 19 11 3 27 31 28 28 32 33 29 25 21 23 21 19 17 16 14 14 13 13 13 15 15 19 20 19 18 18
7 14 28 43 63 40 30 36 22 13 12 11 14 13 10 8 11 10 15 24 26 29 31 32 30 28 25 27 22 20 19 18 17 15 14 13 12 13 14 17 18 22 25 25
8 16 24 38 51 56 54 55 51 42 29 33 27 18 15 10 10 13 19 20 21 23 25 24 26 26 30 30 26 23 22 22 20 18 17 16 15 15 15 17 19 21 23 28
12 36 23 38 41 37 42 44 50 46 33 30 24 15 15 14 17 18 22 26 27 25 26 26 28 28 31 33 31 30 31 30 26 23 22 21 21 21 21 22 23 23 26 26
17 33 39 25 15 14 16 22 25 24 22 19 17 17 15 13 17 23 24 31 32 30 28 26 30 30 32 34 34 35 34 31 31 32 31 30 29 28 27 27 31 32 31 32
50 38 22 37 20 20 19 20 19 20 19 17 15 15 15 13 14 16 16 20 27 34 39 37 36 34 32 33 32 33 35 35 36 35 34 34 34 33 32 34 36 35 35 41
52 46 29 18 25 25 22 20 21 20 18 18 20 22 22 24 22 23 26 27 26 27 32 41 43 37 40 35 30 34 38 36 34 32 32 33 34 35 36 37 37 39 38 44
36 37 39 37 34 32 30 26 23 20 20 21 23 25 24 25 26 26 28 30 27 29 31 30 34 40 44 41 35 33 33 33 31 29 26 27 29 33 38 40 43 46 48 44
36 33 38 38 36 31 27 25 25 25 25 25 23 21 21 21 22 24 26 27 29 30 35 38 40 39 38 36 34 34 34 33 33 30 22 25 27 35 45 53 57 55 54 48
33 24 28 29 32 31 29 28 26 22 22 22 21 20 21 21 19 18 21 22 21 21 28 34 36 39 38 31 32 34 32 33 32 32 34 37 45 51 52 46 44 51 47 49
25 23 22 21 21 22 22 22 21 21 20 17 17 17 16 16 16 16 15 18 23 23 20 24 29 34 35 35 38 38 37 37 38 38 36 43 47 47 46 45 45 44 43 42
25 21 19 20 20 20 20 22 22 20 18 18 17 17 16 15 13 13 14 14 15 20 23 24 24 26 28 28 30 33 33 34 38 42 42 39 38 38 39 40 41 40 41 39
25 24 22 20 20 20 19 18 19 17 17 18 20 20 19 17 17 17 16 14 12 13 14 15 17 18 22 26 29 28 25 26 26 26 28 29 32 32 32 32 31 28 24 25
25 22 20 19 17 15 13 11 9 8 8 10 11 13 14 14 13 9 8 8 7 8 9 12 13 14 17 18 18 18 19 21 22 22 22 21 20 19 17 17 18 17 18 18
23 23 23 21 18 17 18 15 13 13 11 12 12 12 10 9 10 8 5 8 7 8 7 3 2 1 4 7 8 9 8 8 8 8 9 8 8 8 9 10 10 11 12 13
28 29 28 29 26 23 23 26 23 21 19 21 21 21 20 19 19 20 18 18 17 17 14 13 12 10 8 6 6 6 6 6 7 6 7 8 7 7 6 5 5 6 7 9
33 34 32 28 27 27 26 27 28 28 25 26 28 26 23 23 20 26 22 22 23 22 21 22 20 17 15 16 16 16 16 16 15 13 12 11 10 10 9 8 9 9 10 12
34 35 34 30 29 28 26 24 23 27 26 24 27 28 26 26 26 25 24 25 24 24 24 24 23 22 22 23 23 22 23 23 20 20 19 18 18 17 17 17 17 17 18 19
35 33 34 34 32 30 29 27 24 26 25 23 22 27 25 24 23 23 25 25 24 24 24 24 23 22 23 25 26 26 26 25 24 23 23 23 22 22 22 22 22 21 22 22
Wind_Direction_850mb
257 205 188 213 180 185 193 203 187 268 237 265 258 241 274 291 284 269 257 238 232 240 236 216 51 80 111 149 81 51 36 38 67 62 59 60 71 88 129 143 146 149 141 142
310 13 92 267 225 208 218 211 265 280 283 270 275 275 274 294 287 269 259 216 210 210 208 190 149 142 140 154 129 49 44 42 62 75 71 75 81 82 92 123 140 144 147 142
243 352 11 300 223 200 192 201 190 205 245 278 258 240 271 298 295 278 227 205 198 185 182 180 162 151 149 148 141 102 61 62 63 89 82 83 88 94 96 101 109 128 141 153
156 77 212 239 168 179 209 225 215 257 265 251 263 280 283 276 270 270 213 193 188 183 181 178 171 162 158 151 145 137 117 104 84 75 104 99 90 95 105 113 120 127 135 150
165 202 314 312 195 161 180 273 211 225 249 269 291 302 303 299 245 239 237 200 192 186 184 183 178 169 163 160 156 144 136 131 128 114 108 112 121 118 119 126 140 151 151 155
158 208 216 228 185 177 188 286 210 196 235 249 151 335 271 346 313 211 214 203 194 190 189 189 185 180 174 167 163 154 144 136 134 139 141 134 137 144 153 153 154 155 160 156
194 227 277 251 158 143 100 241 156 198 249 208 198 223 302 345 350 205 200 205 196 199 200 195 192 189 184 181 171 166 159 150 144 143 157 161 163 163 171 188 197 215 217 214
120 221 258 177 115 178 200 179 162 150 103 309 294 274 283 298 318 232 191 197 199 203 199 198 197 199 197 187 187 182 180 175 164 165 166 170 186 197 199 206 207 210 208 215
187 202 235 188 215 203 187 187 180 203 273 318 340 353 283 266 300 262 195 198 206 208 205 202 199 200 202 195 204 198 198 196 188 179 184 186 189 200 213 220 225 223 225 228
110 220 238 233 222 226 227 233 242 233 297 237 297 317 314 296 230 218 200 209 212 209 206 205 204 200 189 207 217 218 214 217 217 210 204 203 206 211 216 224 232 238 239 241
264 277 260 254 244 245 246 246 257 264 261 258 269 278 270 250 218 217 215 215 218 218 217 213 213 210 209 215 213 216 221 226 228 225 226 230 231 232 232 236 240 240 241 245
211 210 211 245 260 261 254 250 247 254 255 251 249 240 238 227 224 215 216 223 222 222 221 215 219 217 220 225 229 228 228 230 234 237 238 240 241 244 247 247 253 253 254 256
207 229 221 241 232 218 216 216 216 219 213 211 210 210 216 218 225 224 217 220 221 222 220 224 228 228 230 235 237 240 243 242 242 243 243 244 246 249 253 255 256 260 263 265
226 230 211 214 220 217 205 185 177 177 183 195 210 217 228 221 233 242 243 242 238 231 231 230 227 230 229 234 242 248 249 245 246 248 252 254 255 256 255 253 260 261 261 264
235 227 223 212 203 195 190 194 207 210 216 228 242 247 246 253 254 257 257 250 247 250 243 240 232 230 226 225 245 257 250 248 244 246 252 255 256 258 261 264 267 270 265 267
225 219 222 221 220 224 226 229 230 231 235 239 238 243 249 254 254 253 258 264 261 244 231 244 243 234 232 234 251 245 236 237 240 240 247 258 267 274 275 276 277 279 280 280
191 186 196 203 205 209 212 223 233 234 236 233 233 234 237 244 258 259 257 259 263 251 234 222 217 223 228 247 243 225 221 222 226 231 235 260 276 286 288 289 288 287 290 289
216 214 210 218 215 217 219 224 228 229 231 236 238 236 237 230 235 248 252 252 257 254 235 228 223 214 207 213 240 234 231 228 226 239 253 263 272 273 269 268 276 281 283 281
201 198 189 189 195 201 206 212 216 218 218 225 234 233 234 234 224 220 230 233 234 231 228 227 228 220 218 215 219 236 238 237 246 254 266 272 274 273 274 272 272 277 280 280
190 191 192 192 197 208 215 218 222 225 232 234 239 241 239 239 232 227 221 226 228 233 233 235 236 235 236 236 232 234 239 254 266 273 273 269 270 273 278 282 283 285 287 284
194 199 205 210 210 214 221 232 239 240 243 250 245 240 236 231 233 224 223 231 244 242 244 249 255 257 258 257 257 257 258 260 261 267 272 277 282 286 287 289 290 291 293 293
188 190 194 197 196 197 198 209 217 226 228 224 221 218 215 207 202 202 198 209 222 228 249 258 263 265 263 266 265 268 269 270 273 277 278 280 282 283 286 290 289 289 293 291
161 163 162 158 157 156 150 144 142 136 141 131 132 131 129 127 129 123 101 76 71 68 56 47 94 230 264 257 248 249 256 270 288 297 306 314 314 311 313 311 312 315 313 308
150 148 149 147 143 137 142 135 133 129 125 122 122 116 107 103 104 103 99 88 82 78 74 73 68 69 76 86 85 84 84 80 75 56 42 22 13 16 7 353 345 358 346 332
147 143 142 141 138 137 136 130 127 121 119 117 111 106 103 100 99 94 90 85 80 80 82 82 79 77 78 80 80 81 79 75 70 65 64 63 59 54 48 34 26 14 7 357
145 142 138 141 141 133 128 125 125 115 112 112 109 105 102 100 96 96 95 92 90 88 88 88 88 86 86 85 84 84 83 84 83 81 79 78 74 70 64 56 49 40 35 31
145 144 143 141 137 132 129 132 131 123 118 113 113 108 104 102 103 104 103 101 100 98 97 96 97 96 95 97 97 96 94 92 87 83 81 77 73 68 61 54 48 42 37 34